Terminal Aerodrome Forecast
Issued by NWS

Home | Current Version | Previous Version | Text Only | Print | Product List | Glossary On
Versions: 1 2 3 4 5 6 7 8 9 10 11 12 13 14 15 16 17 18 19 20 21 22 23 24 25 26 27 28 29 30 31 32 33 34 35 36 37 38 39 40 41 42 43 44 45 46
000
FTAK31 PAFA 222119 AAB
TAFASC
TAF AMD
PASC 222119Z 2221/2318 23003KT P6SM FEW016
     FM230600 23003KT P6SM SCT050 BKN120
     FM230900 22006KT P6SM VCSH SCT015 OVC050
     FM231200 24006KT 4SM -SN BR OVC015
     FM231500 26010KT 2SM BR OVC007=

USA.gov is the U.S. government's official web portal to all federal, state and local government web resources and services.